Total_Precipitation_Accumulation
0.05 0.16 0.40 0.66 1.32 1.44 1.07 0.61 0.45 0.37 0.38 0.42 0.48 0.46 0.48 0.58 0.76 1.33 0.98 0.57 0.42 0.40 0.59 1.15 1.46 1.44 1.42 1.43 1.39 1.44 1.45 1.43 1.53 1.56 1.62 1.53 1.48 1.61 1.69 1.77 1.77 1.94 1.92 1.69 1.58 1.40 1.27 1.26 1.22
0.12 0.23 0.51 0.91 1.35 1.19 0.95 0.49 0.36 0.33 0.31 0.42 0.48 0.39 0.35 0.40 0.30 0.35 0.52 0.51 0.35 0.30 0.44 0.78 1.16 1.24 1.22 1.21 1.25 1.26 1.21 1.16 1.29 1.39 1.46 1.50 1.47 1.61 1.71 1.71 1.72 1.92 1.81 1.66 1.51 1.39 1.20 1.09 1.07
0.19 0.32 0.66 1.09 0.84 0.65 0.59 0.34 0.31 0.36 0.44 0.62 0.72 0.49 0.40 0.53 0.36 0.29 0.30 0.28 0.29 0.28 0.34 0.58 0.90 1.03 1.06 1.05 1.18 1.14 1.01 1.03 1.19 1.34 1.37 1.47 1.52 1.60 1.69 1.65 1.73 1.92 1.91 1.74 1.55 1.39 1.17 1.07 1.02
0.23 0.39 0.67 0.72 0.36 0.26 0.32 0.24 0.30 0.40 0.68 0.80 0.83 0.67 0.54 0.49 0.36 0.30 0.21 0.21 0.27 0.28 0.34 0.51 0.77 0.83 0.87 0.87 1.07 1.06 1.00 1.01 1.14 1.29 1.26 1.31 1.41 1.62 1.73 1.69 1.80 1.86 1.81 1.62 1.47 1.29 1.12 1.00 0.98
0.24 0.48 0.78 0.49 0.16 0.14 0.16 0.14 0.21 0.34 0.59 0.80 0.81 0.87 0.86 0.70 0.49 0.36 0.25 0.23 0.24 0.27 0.36 0.43 0.69 0.77 0.85 0.92 1.05 1.06 0.98 0.94 1.05 1.14 1.11 1.22 1.44 1.64 1.79 1.81 1.87 1.85 1.76 1.49 1.32 1.21 1.09 0.98 0.99
0.26 0.49 0.55 0.31 0.16 0.11 0.12 0.13 0.22 0.41 0.63 0.79 0.94 1.04 0.94 0.74 0.54 0.42 0.31 0.33 0.36 0.27 0.37 0.46 0.65 0.75 0.83 0.92 1.00 1.05 1.00 0.97 1.05 1.18 1.15 1.25 1.49 1.69 1.83 1.93 2.02 1.90 1.74 1.42 1.24 1.08 0.96 0.93 0.99
0.21 0.34 0.33 0.21 0.15 0.11 0.11 0.17 0.26 0.41 0.53 0.82 1.09 1.15 0.92 0.83 0.68 0.49 0.49 0.46 0.73 0.46 0.42 0.45 0.56 0.76 0.87 0.99 1.06 1.08 1.06 1.03 1.15 1.33 1.25 1.33 1.52 1.72 1.82 1.96 2.03 1.88 1.68 1.39 1.18 0.99 0.89 0.92 0.94
0.14 0.19 0.19 0.16 0.09 0.08 0.10 0.17 0.27 0.39 0.66 0.93 0.96 1.04 1.04 0.79 0.73 0.71 0.75 0.72 0.89 0.77 0.59 0.56 0.60 0.80 0.94 0.99 1.05 1.16 1.09 1.07 1.17 1.32 1.36 1.60 1.70 1.76 1.82 2.02 2.04 1.86 1.65 1.35 1.18 1.03 0.93 0.95 0.94
0.12 0.20 0.21 0.13 0.05 0.07 0.12 0.21 0.28 0.34 0.55 0.73 0.81 0.78 0.61 0.59 0.76 0.88 0.97 1.05 1.12 1.10 1.00 0.95 0.84 0.81 0.97 0.99 1.05 1.36 1.37 1.30 1.31 1.39 1.61 1.88 2.18 2.23 2.34 2.34 2.22 2.05 1.81 1.61 1.45 1.31 1.15 1.11 1.05
0.09 0.15 0.11 0.05 0.03 0.06 0.11 0.20 0.32 0.41 0.71 1.06 1.09 1.12 0.78 0.80 0.98 1.06 1.07 1.07 1.23 1.36 1.32 1.41 1.18 0.98 0.98 0.97 1.39 1.94 1.88 1.81 1.82 1.88 2.00 2.38 2.62 2.91 2.58 2.79 2.75 2.63 2.45 2.19 2.08 2.02 1.65 1.28 1.11
0.04 0.05 0.03 0.02 0.02 0.03 0.05 0.11 0.16 0.36 0.78 1.22 1.27 1.24 1.03 1.02 1.13 1.26 1.33 1.45 1.59 1.77 1.58 1.46 1.50 1.44 1.43 1.53 1.64 1.88 2.21 2.27 2.27 2.31 2.34 2.60 2.52 2.65 2.66 2.95 3.28 3.09 2.66 2.31 2.42 2.44 1.93 1.79 1.98
0.02 0.02 0.02 0.02 0.02 0.03 0.05 0.12 0.22 0.37 0.80 1.08 0.98 0.86 0.90 1.11 1.30 1.48 1.85 2.08 2.27 2.40 2.35 2.34 2.18 2.06 2.07 1.95 1.79 1.77 1.92 1.97 2.01 2.12 2.22 2.42 2.73 2.79 2.91 3.17 3.09 2.85 2.66 2.79 2.61 2.72 2.49 2.30 2.14
0.02 0.02 0.03 0.02 0.02 0.03 0.07 0.17 0.30 0.42 0.69 0.68 0.59 0.66 1.06 1.32 1.55 1.87 2.11 2.32 2.55 2.91 3.18 3.70 3.56 2.94 2.62 2.38 2.11 1.74 1.80 1.67 1.56 1.73 2.05 2.21 2.42 2.67 2.82 2.71 2.59 2.23 2.33 2.57 2.64 2.37 2.56 2.53 2.51
0.02 0.02 0.04 0.05 0.04 0.06 0.10 0.15 0.39 0.49 0.59 0.67 0.64 0.93 1.38 1.87 2.07 2.32 2.62 3.02 3.33 3.77 3.81 4.00 4.52 3.89 3.17 2.64 2.31 2.02 1.77 1.79 1.71 1.84 1.84 2.06 2.25 2.33 2.40 2.31 2.28 2.14 2.19 2.34 2.32 2.29 2.59 2.70 2.63
0.02 0.05 0.13 0.12 0.09 0.09 0.14 0.30 0.50 0.63 0.65 0.86 0.93 1.15 1.69 2.33 2.33 2.62 2.93 3.41 3.88 4.34 4.48 4.56 4.88 4.56 4.04 3.44 2.85 2.35 2.12 1.88 1.90 2.00 1.78 1.82 2.00 2.04 2.11 2.13 2.07 2.10 2.00 2.03 2.02 2.08 2.29 2.30 2.27
0.04 0.12 0.27 0.23 0.12 0.13 0.20 0.63 0.80 0.69 0.67 0.97 1.19 1.40 1.86 2.52 2.57 2.89 3.34 3.88 4.58 5.01 5.25 5.28 5.06 5.01 4.65 3.98 3.39 2.97 2.70 2.36 2.09 1.96 1.80 1.63 1.72 1.79 1.89 1.80 1.78 1.77 1.69 1.69 1.90 1.97 2.13 2.27 2.31
0.09 0.15 0.26 0.26 0.19 0.16 0.24 0.70 0.74 0.50 0.66 0.95 1.25 1.55 1.85 2.19 2.67 3.25 3.74 4.32 5.25 6.19 6.62 6.40 5.74 5.30 4.86 4.28 3.76 3.60 3.41 2.97 2.44 2.25 2.07 1.88 1.70 1.66 1.74 1.76 1.79 1.53 1.56 1.60 1.55 1.85 2.02 2.28 2.32
0.06 0.10 0.21 0.30 0.23 0.27 0.36 0.47 0.59 0.64 0.81 1.02 1.23 1.41 1.68 1.99 2.40 3.09 3.67 4.35 5.33 6.53 7.23 7.12 6.46 5.61 4.95 4.60 4.16 3.99 3.66 3.19 2.62 2.38 2.28 2.01 1.87 1.66 1.68 1.58 1.52 1.37 1.52 1.72 1.83 2.22 2.15 2.08 2.08
0.05 0.08 0.17 0.26 0.22 0.31 0.39 0.49 0.64 0.80 1.02 1.04 1.13 1.23 1.48 1.78 2.17 2.84 3.53 4.09 4.77 5.53 6.11 5.98 5.37 4.88 4.35 3.88 3.35 3.28 3.09 2.78 2.49 2.21 1.94 1.90 1.85 1.68 1.74 1.66 1.75 1.49 1.53 1.59 1.59 1.80 1.92 1.83 1.83
0.06 0.09 0.15 0.21 0.18 0.19 0.32 0.59 0.74 0.81 0.97 0.93 0.94 1.00 1.20 1.55 2.16 2.92 3.52 3.73 3.74 4.02 4.28 3.77 3.57 3.57 3.24 2.96 2.89 2.82 2.69 2.39 2.16 2.01 1.95 1.61 1.60 1.59 1.53 1.74 1.65 1.57 1.68 1.66 1.65 1.79 1.89 1.83 1.87
0.09 0.11 0.12 0.19 0.19 0.25 0.40 0.75 0.97 0.89 0.89 0.77 0.74 0.96 1.43 1.85 2.28 2.79 2.96 2.96 2.84 2.82 2.81 2.57 2.51 2.83 2.82 2.77 2.72 2.69 2.68 2.54 2.28 1.96 1.92 1.59 1.43 1.45 1.56 1.59 1.67 1.74 1.47 1.67 1.78 1.71 1.75 1.80 1.75
0.08 0.07 0.05 0.07 0.14 0.37 0.55 0.97 1.14 1.06 1.02 0.77 0.81 1.18 1.69 2.00 2.26 2.24 1.83 1.69 1.84 1.93 2.04 2.28 2.36 2.50 2.43 2.49 2.33 2.14 1.97 1.86 1.78 1.73 1.78 1.77 1.56 1.45 1.40 1.46 1.70 1.81 1.58 1.76 1.44 1.53 1.75 1.83 1.69
0.05 0.05 0.04 0.07 0.17 0.42 0.71 1.14 1.35 1.15 0.97 0.76 0.75 0.82 1.20 1.36 1.32 1.15 0.98 1.01 1.25 1.52 1.77 2.16 2.25 2.29 2.23 2.19 2.21 2.19 2.05 2.04 1.93 1.87 2.03 2.01 1.98 1.78 1.48 1.48 1.69 1.82 1.76 1.79 1.67 1.87 1.68 1.57 1.55
0.05 0.06 0.12 0.22 0.40 0.87 0.94 1.03 1.30 1.12 0.90 0.76 0.63 0.59 0.81 0.84 0.68 0.72 0.78 0.95 1.20 1.38 1.49 1.74 1.89 2.06 2.11 2.15 2.23 2.14 2.10 2.18 2.03 1.91 1.85 1.80 1.85 1.79 1.68 1.67 1.87 1.87 1.81 1.84 1.77 1.80 1.71 1.68 1.68
0.04 0.07 0.28 0.63 0.93 1.07 0.80 0.94 1.24 0.87 0.62 0.54 0.44 0.37 0.41 0.49 0.56 0.72 0.80 0.98 1.08 1.19 1.22 1.37 1.45 1.64 1.83 1.94 2.01 2.03 2.06 2.13 1.97 1.89 1.78 1.73 1.62 1.57 1.67 1.76 1.96 1.87 1.81 1.77 1.82 1.81 1.79 1.83 1.87
0.05 0.05 0.13 0.25 0.37 0.58 0.75 1.13 1.22 0.83 0.52 0.38 0.32 0.32 0.32 0.39 0.45 0.50 0.60 0.66 0.77 0.92 1.16 1.34 1.31 1.32 1.38 1.45 1.63 1.80 1.83 1.88 1.85 1.92 1.73 1.59 1.50 1.50 1.64 1.73 1.68 1.66 1.68 1.60 1.80 1.71 1.68 1.72 1.77
0.05 0.04 0.05 0.07 0.11 0.36 0.80 1.07 0.99 0.69 0.51 0.41 0.41 0.43 0.42 0.43 0.49 0.43 0.44 0.56 0.65 0.69 0.83 1.05 1.11 1.12 1.17 1.22 1.36 1.44 1.49 1.62 1.81 1.77 1.57 1.39 1.42 1.44 1.48 1.46 1.48 1.52 1.56 1.67 1.83 1.76 1.71 1.79 1.66
0.05 0.05 0.05 0.07 0.13 0.28 0.63 1.13 1.29 0.95 0.69 0.55 0.59 0.54 0.47 0.42 0.43 0.48 0.50 0.54 0.62 0.63 0.75 0.91 1.06 1.13 1.14 1.15 1.19 1.14 1.29 1.41 1.57 1.59 1.52 1.42 1.33 1.43 1.48 1.46 1.48 1.50 1.44 1.53 1.71 1.63 1.71 1.79 1.75
0.06 0.06 0.07 0.09 0.10 0.18 0.46 0.74 0.75 0.80 0.66 0.50 0.54 0.53 0.49 0.42 0.43 0.54 0.52 0.54 0.52 0.52 0.62 0.76 0.95 1.06 1.01 1.04 1.08 1.16 1.25 1.42 1.47 1.43 1.46 1.44 1.42 1.47 1.51 1.54 1.61 1.58 1.54 1.59 1.67 1.58 1.69 1.75 1.84
0.08 0.09 0.10 0.11 0.12 0.13 0.24 0.41 0.46 0.51 0.60 0.71 0.63 0.62 0.62 0.57 0.48 0.53 0.55 0.52 0.45 0.50 0.60 0.69 0.86 0.99 1.04 1.05 1.12 1.21 1.27 1.35 1.42 1.36 1.43 1.56 1.58 1.62 1.61 1.64 1.73 1.66 1.69 1.74 1.63 1.61 1.68 1.74 1.76